Location: Newark
(48.3831°N, 4.1956°E)
Time: 15:56:41
(UTC+00:00)

Envisat - Pass Details

Date: 17 November 2019
Orbit: 764 x 766 km, 98.1° (Epoch: 12 December)

Event Time Altitude Azimuth Distance (km) Brightness Sun altitude
Rises 18:30:21 0° 194° (SSW) 3,221 6.4 -24.3°
Reaches altitude 10° 18:32:54 10° 205° (SSW) 2,299 5.8 -24.8°
Maximum altitude 18:37:20 30° 266° (W) 1,354 4.9 -25.5°
Drops below altitude 10° 18:41:48 10° 327° (NNW) 2,314 5.9 -26.2°
Sets 18:44:23 0° 338° (NNW) 3,245 6.5 -26.7°
